Simultaneous Nadir Overpasses (SNOs) Predictions

Prediction of SNOs between AQUA and NOAA-19 Satellite Orbit:

Table of predicted SNOs for the next 14.0 days since TLE Epoch: 12/3/2016
Index Date (AQUA) Time (AQUA) Lat,Lon (AQUA) SZA (AQUA ) Date (NOAA-19) Time (NOAA-19) Lat,Lon (NOAA-19) SZA (NOAA-19 ) Distance(km) Time Diff (sec)
1 12/03/2016 21:00:50 80.95,-175.77 104.98 12/03/2016 20:59:45 80.95,-175.79 105.01 0.43 65
2 12/03/2016 21:50:16 -80.93, -7.89 75.05 12/03/2016 21:50:43 -80.94, -7.95 75.05 1.73 27
3 12/06/2016 02:34:34 -80.94, -79.13 74.73 12/06/2016 02:33:40 -80.95, -79.15 74.70 0.84 54
4 12/06/2016 03:24:00 80.93, 88.63 105.26 12/06/2016 03:24:40 80.94, 88.71 105.24 1.58 40
5 12/08/2016 08:08:18 80.95, 17.32 105.56 12/08/2016 08:07:37 80.95, 17.19 105.59 2.39 41
6 12/08/2016 08:57:44 -80.93,-174.76 74.49 12/08/2016 08:58:36 -80.94,-174.89 74.49 2.61 52
7 12/10/2016 13:42:02 -80.95, 113.91 74.22 12/10/2016 13:41:33 -80.95, 113.74 74.19 2.91 29
8 12/10/2016 14:31:28 80.94, -78.37 105.77 12/10/2016 14:32:32 80.95, -78.50 105.76 2.32 64
9 12/12/2016 19:15:45 80.94,-149.41 105.96 12/12/2016 19:15:27 80.95,-149.45 105.98 1.09 18




NCC Satellite Simultaneous Nadir Overpasses (SNOs) Prediction Service
